Location: Oklahoma City
(35.4680°N, 97.5160°W)
Time: 00:40:14
(UTC-05:00)

ISS - Visible Passes

Search period start: 26 May 2015 00:00
Search period end: 05 June 2015 00:00
Orbit: 399 x 404 km, 51.6° (Epoch: 25 May)

Date Brightness Start Highest point End Pass type
(mag) Time Alt. Az. Time Alt. Az. Time Alt. Az.
28 May 0.0 05:21:41 10° N 05:23:11 13° NNE 05:24:46 10° NE visible
30 May -0.6 05:10:43 10° NNW 05:13:22 22° NNE 05:16:02 10° E visible
30 May -2.6 21:47:34 10° SSW 21:50:24 29° SE 21:53:18 10° ENE visible
30 May -0.9 23:24:09 10° W 23:26:50 23° NNW 23:29:31 10° NNE visible
31 May 0.0 04:18:03 10° N 04:19:51 14° NNE 04:21:43 10° ENE visible
31 May -2.1 22:30:19 10° WSW 22:33:26 43° NW 22:36:33 10° NE visible
01 Jun -2.3 05:00:09 10° NW 05:03:19 49° NE 05:06:30 10° ESE visible
01 Jun -3.5 21:36:53 10° SW 21:40:07 84° SE 21:43:22 10° NE visible
01 Jun 0.1 23:15:17 10° NW 23:16:56 13° NNW 23:18:31 10° N visible
02 Jun -1.0 04:07:08 10° NNW 04:09:54 25° NNE 04:12:43 10° E visible
02 Jun -2.3 05:43:30 10° WNW 05:46:18 26° SW 05:49:04 10° S visible
02 Jun -0.5 22:20:50 10° W 22:23:22 21° NNW 22:25:53 10° NNE visible
03 Jun -0.1 03:14:21 10° N 03:16:23 16° NNE 03:18:28 10° ENE visible
03 Jun -3.4 04:49:51 10° NW 04:53:05 60° SW 04:56:17 10° SE visible
03 Jun -1.6 21:26:52 10° WSW 21:29:53 36° NW 21:32:57 10° NNE visible
04 Jun 0.3 02:22:22 10° NNE 02:22:45 10° NNE 02:23:13 10° NNE visible
04 Jun -1.0 03:56:32 10° NW 04:02:21 15° ESE 04:02:59 10° ESE visible
04 Jun -1.3 05:35:49 10° SW 05:35:50 10° SW 05:36:18 10° SW visible
04 Jun 0.1 22:12:06 10° NW 22:13:24 12° NNW 22:14:38 10° N visible
